Location: Newark
(58.9986°N, 38.5006°E)
Time: 07:23:54
(UTC+00:00)

Explorer 7 - Pass Details

Date: 22 April 2021
Orbit: 484 x 677 km, 50.3° (Epoch: 11 May)

Event Time Altitude Azimuth Distance (km) Brightness Sun altitude
Rises 20:48:05 0° 262° (W) 2,749 10.4 -18.1°
Reaches altitude 10° 20:50:41 10° 246° (WSW) 1,890 9.4 -18.2°
Enters shadow 20:51:37 14° 237° (WSW) 1,642 9.0 -18.2°
